CZ-6A DEB

Satellite information

Favourite Embed

Satellite Type and Status

DEBRISIN ORBIT

Key statistics

Satellite CZ-6A DEB at a glance.

Uptime

445

Days in orbit

Revolutions

≈ 14.8

Per day

Orbit

LEO

Low Earth Orbit

Inclination

89.2

Latest

Satellite identification and parameters

Extended collection of information and parameters for CZ-6A DEB.

Object identification

Identified? True

Debris? True

Object name: CZ-6A DEB

International designator: 2024-140AAU

Object number (NORAD): 61486

Object ID (CCSDS): 61486

Country: PEOPLES REPUBLIC OF CHINA (PRC)

Current information (Y/N): Y

RCS size: SMALL

Orbital parameters

Period: 97.319 minutes

Inclination: 89.2099 deg

SMA: 7008.504 km

Apoapsis: 686.92 km

Periapsis: 573.818 km

RAAN: 309.7818 deg

Eccentricy: 0.00806895

Argument of periapsis: 241.7199 deg

Mean anomaly: 117.5866 deg

Mean motion: 14.79669702 rev/day

Mean motion (dot): 0.00045103 rev/day2

B* drag term: 0.005657219 1/REarth

Two-line elements (TLE)

Creation date: Oct. 24, 2025, 6:33 p.m.

Reference frame: TEME

Reference center: EARTH

Epoch: Oct. 24, 2025, 1:17 a.m. UTC

TLE line 0: 0 CZ-6A DEB

TLE line 1: 1 61486U 24140AAU 25297.05405331 .00045103 00000-0 56572-2 0 9992

TLE line 2: 2 61486 89.2099 309.7818 0080690 241.7199 117.5866 14.79669702 59825

Live tracking on map

Real-time ground track for satellite CZ-6A DEB.

In-orbit conjunctions

A list of the most updated potential collisions computed for object CZ-6A DEB.

Target Orbit TCA Probability of collision Miss distance Type
RESURS O1 SSO 2025-04-23 07:51:21 0.0002520207 473.0 (m) PAYLOAD
NOAA 16 DEB SSO 2025-02-18 07:37:15 0.0003159632 230.0 (m) DEBRIS
FENGYUN 1C DEB SSO 2025-01-29 15:25:04 0.0004083162 591.0 (m) DEBRIS
SL-16 DEB LEO 2025-01-26 01:18:58 0.0001648982 975.0 (m) DEBRIS

Associated space launch

18 Low Earth Orbit communication satellites with Ku, Q and V band payloads for the G60 constellation operated by Shanghai Spacecom Satellite Technology (SSST) with funding backed by the Shanghai local government. Initial constellation will consist of 1296 satellites by 2027 with long term plans to expand it to 12000 satellites.

CZ-6A DEB was lifted into orbit during the mission ‘Long March 6A | G60 Polar Group 01’, on board a Long March 6A space rocket.

The launch took place on Aug. 6, 2024, 6:42 a.m. from Launch Complex 9A.

For more information about the launch, click the button.

Launch to space Long March 6A | G60 Polar Group 01
Long March 6A | G60 Polar Group 01

Agency: N/A

Status: Launch Successful

Launch date: Aug. 6, 2024, 6:42 a.m. UTC

Rocket: Long March 6A

Launch pad: Launch Complex 9A

Location: Taiyuan Satellite Launch Center, People's Republic of China

...

Latest news about this satellite

News about space launch
Brightness of first Chinese broadband constellation satellites alarms astronomers

The first satellites of a Chinese broadband constellation are significantly brighter than those of Western systems, posing a new challenge for astronomers.

News about space launch
Chinese rocket stage breaks up into cloud of more than 700 pieces of space debris

HELSINKI — A Chinese Long March 6A rocket’s upper stage has fragmented into a cloud of over 700 pieces of space debris, adding to concerns about long-term orbital safety. China […]

News about space launch
China's Thousand Sails Megaconstellation Kicks Off with Dangerous Debris Field

China's Thousand Sails Megaconstellation Kicks Off with Dangerous Debris Field


Newsletter sign-up

Weekly statistics, charts and insights to help you stay on top of the space industry.